Portsmouth Weather Center

Moon Phase Calendar



Online Cameras

 


      

Current Conditions in New Castle
10/27/2020 5:14:51 AM

47°F
Feels Like 43
Clouds
Humidity
100%
Pressure
30.03"
Wind
5.8 mph (W)
Dew Point
47°F
UV Index
2/10 (Low)
Visibility
6 mi

Hourly Forecast

Date & Time Tue, Oct 27
5:00 AM
Tue, Oct 27
6:00 AM
Tue, Oct 27
7:00 AM
Tue, Oct 27
8:00 AM
Tue, Oct 27
9:00 AM
Tue, Oct 27
10:00 AM
Tue, Oct 27
11:00 AM
Tue, Oct 27
12:00 PM
Tue, Oct 27
1:00 PM
Tue, Oct 27
2:00 PM
Tue, Oct 27
3:00 PM
Tue, Oct 27
4:00 PM
Tue, Oct 27
5:00 PM
Tue, Oct 27
6:00 PM
Tue, Oct 27
7:00 PM
Tue, Oct 27
8:00 PM
Tue, Oct 27
9:00 PM
Tue, Oct 27
10:00 PM
Tue, Oct 27
11:00 PM
Wed, Oct 28
12:00 AM
Wed, Oct 28
1:00 AM
Wed, Oct 28
2:00 AM
Wed, Oct 28
3:00 AM
Wed, Oct 28
4:00 AM
Wed, Oct 28
5:00 AM
Wed, Oct 28
6:00 AM
Wed, Oct 28
7:00 AM
Wed, Oct 28
8:00 AM
Wed, Oct 28
9:00 AM
Wed, Oct 28
10:00 AM
Wed, Oct 28
11:00 AM
Wed, Oct 28
12:00 PM
Wed, Oct 28
1:00 PM
Wed, Oct 28
2:00 PM
Wed, Oct 28
3:00 PM
Wed, Oct 28
4:00 PM
Wed, Oct 28
5:00 PM
Wed, Oct 28
6:00 PM
Wed, Oct 28
7:00 PM
Wed, Oct 28
8:00 PM
Wed, Oct 28
9:00 PM
Wed, Oct 28
10:00 PM
Wed, Oct 28
11:00 PM
Thu, Oct 29
12:00 AM
Thu, Oct 29
1:00 AM
Thu, Oct 29
2:00 AM
Thu, Oct 29
3:00 AM
Thu, Oct 29
4:00 AM
Condition
Clouds

Clouds

Clouds

Rain

Clouds

Clouds

Clouds

Clouds

Clouds

Clouds

Clouds

Clouds

Clouds

Clouds

Clouds

Clouds

Clouds

Clouds

Clouds

Clouds

Clouds

Clouds

Rain

Rain

Rain

Clouds

Clouds

Clouds

Clouds

Clouds

Clouds

Clouds

Clouds

Clouds

Clouds

Clouds

Clouds

Clouds

Clouds

Clouds

Clear

Clear

Clear

Clouds

Clouds

Clouds

Clouds

Clouds
Temperature 47°F49°F49°F48°F48°F48°F47°F48°F49°F51°F51°F50°F49°F48°F47°F46°F46°F45°F45°F45°F45°F44°F43°F42°F42°F42°F41°F42°F45°F47°F48°F48°F48°F49°F51°F51°F51°F50°F49°F48°F47°F46°F46°F46°F46°F45°F45°F46°F
Feels Like 41°F42°F42°F42°F43°F42°F41°F43°F45°F47°F48°F47°F45°F40°F39°F37°F38°F37°F38°F39°F38°F38°F38°F39°F39°F39°F38°F39°F40°F42°F42°F42°F42°F42°F44°F46°F46°F45°F43°F42°F41°F40°F39°F38°F38°F38°F37°F37°F
Cloudiness 90%95%98%99%100%100%100%97%97%90%46%60%73%80%84%87%100%100%93%95%96%97%100%100%100%100%97%92%88%92%92%94%95%96%83%83%86%86%76%63%0%0%0%20%36%47%100%96%
Visibility 6 mi6 mi6 mi6 mi6 mi6 mi6 mi6 mi6 mi6 mi6 mi6 mi6 mi6 mi6 mi6 mi6 mi6 mi6 mi6 mi6 mi6 mi6 mi6 mi6 mi6 mi6 mi6 mi6 mi6 mi6 mi6 mi6 mi6 mi6 mi6 mi6 mi6 mi6 mi6 mi6 mi6 mi6 mi6 mi6 mi6 mi6 mi6 mi
Precipitation 8%13%24%33%14%6%6%3%0%0%0%0%0%0%0%0%0%0%0%0%0%0%37%30%34%36%31%28%3%3%18%9%18%18%0%1%1%0%0%0%0%0%0%0%0%0%0%0%
Humidity 100%93%89%88%86%81%79%74%70%64%62%61%63%60%59%61%61%64%64%65%68%73%79%81%83%82%83%81%78%75%76%76%80%80%76%73%74%77%81%83%85%85%83%81%81%81%80%79%
Dew Point 47°F47°F46°F45°F44°F42°F41°F40°F40°F39°F38°F37°F37°F35°F34°F34°F34°F33°F34°F34°F35°F36°F37°F37°F37°F37°F37°F37°F38°F40°F41°F42°F42°F43°F44°F43°F43°F43°F43°F43°F43°F42°F41°F41°F40°F40°F40°F40°F
Pressure 30.03"30.06"30.09"30.15"30.15"30.15"30.15"30.15"30.12"30.12"30.12"30.12"30.12"30.12"30.12"30.15"30.15"30.15"30.15"30.15"30.15"30.15"30.12"30.12"30.12"30.12"30.12"30.12"30.12"30.12"30.09"30.06"30.03"30"30"29.97"29.97"29.97"29.97"29.97"29.97"29.94"29.94"29.91"29.91"29.91"29.91"29.91"
Wind Speed 10 mph11 mph10.9 mph9.6 mph6.4 mph6.6 mph6.2 mph4.8 mph3.6 mph2.2 mph1.2 mph1.9 mph2.4 mph7.4 mph8.2 mph9.8 mph8.6 mph6.9 mph5.6 mph5.3 mph5.9 mph5.6 mph3.3 mph1.7 mph0.3 mph1.2 mph1 mph1 mph2.7 mph5 mph7.3 mph7.9 mph7.6 mph9 mph9.3 mph7.5 mph5.6 mph5.8 mph6.4 mph6.7 mph7.5 mph8.5 mph9.3 mph10 mph9.3 mph9.5 mph10 mph10.8 mph
Wind
Direction
292°
WNW
314°
NW
334°
NNW

N

N
349°
N
353°
N

N

N
13°
NNE
14°
NNE
278°
W
275°
W
304°
NW
317°
NW
317°
NW
325°
NW
312°
NW
321°
NW
302°
WNW
313°
NW
345°
NNW
348°
NNW
357°
N
192°
SSW
169°
S
253°
WSW
211°
SSW
144°
SE
188°
S
187°
S
209°
SSW
206°
SSW
204°
SSW
208°
SSW
212°
SSW
211°
SSW
210°
SSW
210°
SSW
221°
SW
239°
WSW
241°
WSW
241°
WSW
248°
WSW
256°
WSW
259°
W
257°
WSW
251°
WSW

Daily Forecast

Date High Low Precip. Humidity
Today
Oct 27

Rain
51 °F
45 °F
40%
83%
Wednesday
Oct 28

Rain
51 °F
42 °F
38%
76%
Thursday
Oct 29

Rain
54 °F
44 °F
100%
60%
Friday
Oct 30

Rain
42 °F
34 °F
100%
75%
Saturday
Oct 31

Clear
45 °F
33 °F
0%
55%
Sunday
Nov 1

Rain
56 °F
44 °F
83%
73%
Monday
Nov 2

Clear
42 °F
32 °F
27%
70%
Tuesday
Nov 3

Clear
41 °F
33 °F
0%
67%
Wednesday
Nov 4

Clouds
54 °F
33 °F
0%
58%
Thursday
Nov 5

Clear
61 °F
46 °F
0%
60%
Friday
Nov 6

Clouds
58 °F
47 °F
18%
69%
Saturday
Nov 7

Rain
56 °F
50 °F
100%
96%
Sunday
Nov 8

Rain
59 °F
56 °F
100%
97%
Monday
Nov 9

Rain
62 °F
57 °F
100%
90%
Tuesday
Nov 10

Rain
59 °F
53 °F
100%
80%
Wednesday
Nov 11

Clear
50 °F
36 °F
0%
65%


Temperature 8-14 Day Outlook



Precipitation 8-14 Day Outlook




Quick Links
Portsmouth News
Portsmouth Photos
Portsmouth Videos




About Us
Contact Us
Site Map
Search Site
Advertise With Us
   
Portsmouth.USCoast.info
THE PORTSMOUTH WEBSITE

Copyright 2020, Coastal Town
Privacy    |    Legal